timestamp,surface_pressure_avg,surface_temp_avg,battery_voltage,lat,long
2022-06-03 00:09:00+00:00,331.1779,3.3,12.01,47.84626,-54.09684
2022-06-03 00:19:00+00:00,337.9363,3.3,12.01,47.84626,-54.09684
2022-06-03 00:29:00+00:00,345.6462,3.31,12.01,47.84626,-54.09684
2022-06-03 00:39:00+00:00,351.3729,3.39,12.01,47.84626,-54.09684
2022-06-03 00:49:00+00:00,352.7595,3.39,12.01,47.84626,-54.09684
2022-06-03 00:59:00+00:00,355.1663,3.36,12.01,47.84626,-54.09684
2022-06-03 01:09:00+00:00,360.1731,3.3,12.01,47.84626,-54.09684
2022-06-03 01:19:01+00:00,363.8962,3.3,12.01,47.84626,-54.09684
2022-06-03 01:29:01+00:00,365.3613,3.3,12.01,47.84626,-54.09684
2022-06-03 01:39:01+00:00,366.1113,3.36,12.01,47.84626,-54.09684
2022-06-03 01:49:01+00:00,363.6329,3.4,12.01,47.84626,-54.09684
2022-06-03 01:59:01+00:00,363.4296,3.42,12.01,47.84626,-54.09684
2022-06-03 02:09:01+00:00,365.3746,3.41,12.01,47.84626,-54.09684
2022-06-03 02:19:00+00:00,366.0996,3.4,12.01,47.84626,-54.09684
2022-06-03 02:29:00+00:00,365.1947,3.42,12.01,47.84626,-54.09684
2022-06-03 02:39:00+00:00,362.12800000000004,3.4,12.01,47.84626,-54.09684
2022-06-03 02:49:00+00:00,359.2029,3.4,12.01,47.84626,-54.09684
2022-06-03 02:59:00+00:00,355.8929,3.3,12.01,47.84626,-54.09684
2022-06-03 03:09:00+00:00,351.2363,3.3,12.01,47.84626,-54.09684
2022-06-03 03:19:01+00:00,344.44300000000015,3.22,12.01,47.84626,-54.09684
2022-06-03 03:29:01+00:00,339.2963,3.2,12.01,47.84626,-54.09684
2022-06-03 03:39:01+00:00,336.0614,3.2,12.01,47.84626,-54.09684
2022-06-03 03:49:01+00:00,330.6512,3.2,12.01,47.84626,-54.09684
2022-06-03 03:59:01+00:00,327.498,3.2,12.01,47.84626,-54.09684
2022-06-03 04:09:01+00:00,325.1479,3.25,12.01,47.84626,-54.09684
2022-06-03 04:19:00+00:00,318.738,3.3,12.01,47.84626,-54.09684
2022-06-03 04:29:00+00:00,310.8013,3.3,12.01,47.84626,-54.09684
2022-06-03 04:39:00+00:00,305.623,3.2,12.01,47.84626,-54.09684
2022-06-03 04:49:00+00:00,299.0464,3.1,12.01,47.84626,-54.09684
2022-06-03 04:59:00+00:00,292.3181,3.09,12.01,47.84626,-54.09684
2022-06-03 05:09:00+00:00,286.433,3.1,12.01,47.84626,-54.09684
2022-06-03 05:19:01+00:00,280.7081,3.1,12.01,47.84626,-54.09684
2022-06-03 05:29:01+00:00,274.118,3.09,12.01,47.84626,-54.09684
2022-06-03 05:39:01+00:00,268.0364,3.1,12.01,47.84626,-54.09684
2022-06-03 05:49:01+00:00,262.0547,3.1,12.01,47.84626,-54.09684
2022-06-03 05:59:01+00:00,254.3631,3.1,12.01,47.84626,-54.09684
2022-06-03 06:09:01+00:00,248.0548,3.1,12.01,47.84626,-54.09684
2022-06-03 06:19:00+00:00,242.4981,3.1,12.01,47.84626,-54.09684
2022-06-03 06:29:00+00:00,233.7047,3.1,12.01,47.84626,-54.09684
2022-06-03 06:39:00+00:00,222.9848,3.1,12.01,47.84626,-54.09684
2022-06-03 06:49:00+00:00,219.3381,3.1,12.01,47.84626,-54.09684
2022-06-03 06:59:00+00:00,219.3098,3.1,12.01,47.84626,-54.09684
2022-06-03 07:09:00+00:00,214.1481,3.1,12.01,47.84626,-54.09684
2022-06-03 07:19:01+00:00,208.0847,3.17,12.01,47.84626,-54.09684
2022-06-03 07:29:01+00:00,210.3148,3.2,12.01,47.84626,-54.09684
2022-06-03 07:39:01+00:00,212.0497,3.2,12.01,47.84626,-54.09684
2022-06-03 07:49:01+00:00,207.2298,3.2,12.01,47.84626,-54.09684
2022-06-03 07:59:01+00:00,208.4931,3.2,12.01,47.84626,-54.09684
2022-06-03 08:09:01+00:00,215.9081,3.2,12.01,47.84626,-54.09684
2022-06-03 08:19:01+00:00,216.4598,3.2,12.01,47.84626,-54.09684
2022-06-03 08:29:01+00:00,213.8814,3.2,12.01,47.84626,-54.09684
2022-06-03 08:39:01+00:00,219.3315,3.2,12.01,47.84626,-54.09684
2022-06-03 08:49:01+00:00,226.3248,3.2,12.01,47.84626,-54.09684
2022-06-03 08:59:01+00:00,225.5598,3.2,12.01,47.84626,-54.09684
2022-06-03 09:09:01+00:00,226.1464,3.2,12.01,47.84626,-54.09684
2022-06-03 09:19:01+00:00,231.5547,3.2,12.01,47.84626,-54.09684
2022-06-03 09:29:01+00:00,233.7181,3.2,12.01,47.84626,-54.09684
2022-06-03 09:39:01+00:00,233.0931,3.2,12.01,47.84626,-54.09684
2022-06-03 09:49:01+00:00,235.6531,3.24,12.01,47.84626,-54.09684
2022-06-03 09:59:01+00:00,240.4315,3.25,12.01,47.84626,-54.09684
2022-06-03 10:09:01+00:00,240.6381,3.29,12.01,47.84626,-54.09684
2022-06-03 10:19:01+00:00,242.8014,3.3,12.09,47.84626,-54.09684
2022-06-03 10:29:01+00:00,249.3197,3.3,12.09,47.84626,-54.09684
2022-06-03 10:39:01+00:00,256.6397,3.3,12.09,47.84626,-54.09684
2022-06-03 10:49:01+00:00,259.7298,3.3,12.09,47.84626,-54.09684
2022-06-03 10:59:01+00:00,262.1214,3.3,12.09,47.84626,-54.09684
2022-06-03 11:09:01+00:00,267.4481,3.3,12.09,47.84626,-54.09684
2022-06-03 11:19:01+00:00,274.6348,3.37,12.09,47.84626,-54.09684
2022-06-03 11:29:01+00:00,277.2414,3.4,12.09,47.84626,-54.09684
2022-06-03 11:39:01+00:00,279.5065,3.3,12.09,47.84626,-54.09684
2022-06-03 11:49:01+00:00,284.8297,3.1,12.09,47.84626,-54.09684
2022-06-03 11:59:01+00:00,291.8181,3.14,12.09,47.84626,-54.09684
2022-06-03 12:09:01+00:00,296.9547,3.1,12.09,47.84626,-54.09684
2022-06-03 12:19:01+00:00,300.903,3.0,12.09,47.84626,-54.09684
2022-06-03 12:29:01+00:00,308.0163,2.9,12.09,47.84626,-54.09684
2022-06-03 12:39:01+00:00,313.0963,2.8,12.09,47.84626,-54.09684
2022-06-03 12:49:01+00:00,316.3847,2.7,12.09,47.84626,-54.09684
2022-06-03 12:59:01+00:00,319.3896,2.7,12.09,47.84626,-54.09684
2022-06-03 13:09:01+00:00,322.9347,2.9,12.09,47.84626,-54.09684
2022-06-03 13:19:01+00:00,325.1562,3.09,12.25,47.84626,-54.09684
2022-06-03 13:29:01+00:00,327.978,3.19,12.25,47.84626,-54.09684
2022-06-03 13:39:01+00:00,329.7579,3.26,12.25,47.84626,-54.09684
2022-06-03 13:49:01+00:00,330.5647,3.3,12.25,47.84626,-54.09684
2022-06-03 13:59:01+00:00,329.1714,3.3,12.25,47.84626,-54.09684
2022-06-03 14:09:01+00:00,329.6047,3.3,12.25,47.84626,-54.09684
2022-06-03 14:19:01+00:00,327.298,3.27,12.09,47.84626,-54.09684
2022-06-03 14:29:01+00:00,324.8363,3.2,12.09,47.84626,-54.09684
2022-06-03 14:39:01+00:00,323.5862,3.1,12.09,47.84626,-54.09684
2022-06-03 14:49:01+00:00,321.988,3.0,12.09,47.84626,-54.09684
2022-06-03 14:59:01+00:00,318.5163,2.8,12.09,47.84626,-54.09684
2022-06-03 15:09:01+00:00,315.9413,2.6,12.09,47.84626,-54.09684
2022-06-03 15:19:00+00:00,314.7147,2.59,12.17,47.84626,-54.09684
2022-06-03 15:29:00+00:00,314.273,2.64,12.17,47.84626,-54.09684
2022-06-03 15:39:00+00:00,311.4664,2.7,12.17,47.84626,-54.09684
2022-06-03 15:49:00+00:00,307.4896,2.8,12.17,47.84626,-54.09684
2022-06-03 15:59:00+00:00,307.0447,2.7,12.17,47.84626,-54.09684
2022-06-03 16:09:00+00:00,303.6964,2.8,12.17,47.84626,-54.09684
2022-06-03 16:19:00+00:00,298.923,2.76,12.41,47.84626,-54.09684
2022-06-03 16:29:00+00:00,295.3113,2.69,12.41,47.84626,-54.09684
2022-06-03 16:39:00+00:00,293.8896,2.6,12.41,47.84626,-54.09684
2022-06-03 16:49:00+00:00,290.798,2.6,12.41,47.84626,-54.09684
2022-06-03 16:59:00+00:00,283.5013,2.6,12.41,47.84626,-54.09684
2022-06-03 17:09:00+00:00,276.0714,3.17,12.41,47.84626,-54.09684
2022-06-03 17:19:00+00:00,271.6964,3.63,12.33,47.84626,-54.09684
2022-06-03 17:29:00+00:00,265.3214,3.69,12.33,47.84626,-54.09684
2022-06-03 17:39:00+00:00,259.9597,3.65,12.33,47.84626,-54.09684
2022-06-03 17:49:00+00:00,256.2597,3.41,12.33,47.84626,-54.09684
2022-06-03 17:59:00+00:00,252.2564,3.0,12.33,47.84626,-54.09684
2022-06-03 18:09:00+00:00,242.783,3.55,12.33,47.84626,-54.09684
2022-06-03 18:19:00+00:00,236.6231,3.7,12.25,47.84626,-54.09684
2022-06-03 18:29:00+00:00,233.9514,3.37,12.25,47.84626,-54.09684
2022-06-03 18:39:00+00:00,229.9464,2.8,12.25,47.84626,-54.09684
2022-06-03 18:49:00+00:00,224.1614,2.83,12.25,47.84626,-54.09684
2022-06-03 18:59:00+00:00,219.9781,3.1,12.25,47.84626,-54.09684
2022-06-03 19:09:00+00:00,218.8515,3.2,12.25,47.84626,-54.09684
2022-06-03 19:19:00+00:00,216.0364,3.18,12.25,47.84626,-54.09684
2022-06-03 19:29:00+00:00,213.1215,3.61,12.25,47.84626,-54.09684
2022-06-03 19:39:00+00:00,211.4481,3.63,12.25,47.84626,-54.09684
2022-06-03 19:49:00+00:00,212.7048,3.58,12.25,47.84626,-54.09684
2022-06-03 19:59:00+00:00,212.5097,3.6,12.25,47.84626,-54.09684
2022-06-03 20:09:00+00:00,213.0031,3.7,12.25,47.84626,-54.09684
2022-06-03 20:19:00+00:00,215.8798,3.6,12.17,47.84626,-54.09684
2022-06-03 20:29:00+00:00,220.2931,3.6,12.17,47.84626,-54.09684
2022-06-03 20:39:00+00:00,223.7315,3.6,12.17,47.84626,-54.09684
2022-06-03 20:49:00+00:00,226.3731,3.15,12.17,47.84626,-54.09684
2022-06-03 20:59:00+00:00,227.8264,2.9,12.17,47.84626,-54.09684
2022-06-03 21:09:00+00:00,231.2881,2.89,12.17,47.84626,-54.09684
2022-06-03 21:19:01+00:00,237.6531,2.88,12.17,47.84626,-54.09684
2022-06-03 21:29:01+00:00,241.1348,3.08,12.17,47.84626,-54.09684
2022-06-03 21:39:01+00:00,244.2597,3.56,12.17,47.84626,-54.09684
2022-06-03 21:49:01+00:00,250.2548,3.5,12.17,47.84626,-54.09684
2022-06-03 21:59:01+00:00,254.743,3.4,12.17,47.84626,-54.09684
2022-06-03 22:09:01+00:00,257.088,3.0,12.17,47.84626,-54.09684
2022-06-03 22:19:00+00:00,260.2931,2.9,12.09,47.84626,-54.09684
2022-06-03 22:29:00+00:00,264.7564,2.89,12.09,47.84626,-54.09684
2022-06-03 22:39:00+00:00,268.1781,2.99,12.09,47.84626,-54.09684
2022-06-03 22:49:00+00:00,270.3331,3.3,12.09,47.84626,-54.09684
2022-06-03 22:59:00+00:00,273.2564,3.3,12.09,47.84626,-54.09684
2022-06-03 23:09:00+00:00,275.8665,3.3,12.09,47.84626,-54.09684
2022-06-03 23:19:00+00:00,278.9731,2.7,12.09,47.84626,-54.09684
2022-06-03 23:29:00+00:00,282.9047,2.6,12.09,47.84626,-54.09684
2022-06-03 23:39:00+00:00,289.7197,2.78,12.09,47.84626,-54.09684
2022-06-03 23:49:00+00:00,296.7364,3.0,12.09,47.84626,-54.09684
2022-06-03 23:59:00+00:00,302.3197,3.1,12.09,47.84626,-54.09684
